Location: Capelle
(50.3413°N, 1.9974°E)
Time: 23:36:30
(UTC+00:00)

USA 267 - Pass Details

Date: 12 January 2026
Orbit: 1101 x 1107 km, 123.0° (Epoch: 10 January)

Event Time Altitude Azimuth Distance (km) Brightness Sun altitude
Exits shadow 18:46:12 32° 129° (SE) 1,779 4.0 -23.6°
Maximum altitude 18:49:30 81° 213° (SSW) 1,121 3.2 -24.1°
Drops below altitude 10° 18:56:04 10° 301° (WNW) 2,965 6.2 -25.2°
Sets 18:58:34 0° 303° (WNW) 3,925 7.0 -25.6°
